EW9318 Weather Reports


time (UTC)temp
F
wind
direction
speed
knots
gust
knots
rain 1hr
in
rain 24hr
in
rain mn
in
humidity
%
barometer
mb
20210224235534 34 323 7.8 11.3 0.00 0.00 0.00 81 1015.5
20210224235341 34 324 6.1 11.3 0.00 0.00 0.00 81 1015.3
20210224234529 34 319 6.1 11.3 0.00 0.00 0.00 81 1015.2
20210224234025 35 326 7.0 13.9 0.00 0.00 0.00 80 1015.1
20210224233530 35 324 7.8 13.9 0.00 0.00 0.00 80 1014.9
20210224233034 35 321 7.8 14.8 0.00 0.00 0.00 80 1014.6
20210224232652 35 314 9.6 14.8 0.00 0.00 0.00 80 1014.5
20210224232023 35 330 7.0 12.2 0.00 0.00 0.00 80 1014.4
20210224231529 35 318 7.8 14.8 0.00 0.00 0.00 80 1014.3
20210224231027 35 327 8.7 15.6 0.00 0.00 0.00 80 1014.2
20210224230524 35 328 7.8 15.6 0.00 0.00 0.00 80 1014.1
20210224230030 35 320 7.8 16.5 0.00 0.00 0.00 80 1014.0
20210224225523 35 311 9.6 17.4 0.00 0.00 0.00 80 1013.9
20210224225025 35 314 8.7 17.4 0.00 0.00 0.00 80 1013.8
20210224224523 35 309 8.7 15.6 0.00 0.00 0.00 80 1013.6
20210224224024 35 315 8.7 15.6 0.00 0.00 0.00 80 1013.5
20210224223518 35 305 9.6 15.6 0.00 0.00 0.00 81 1013.4
20210224223044 35 315 9.6 13.9 0.00 0.00 0.00 81 1013.2
20210224222745 35 308 8.7 19.1 0.00 0.00 0.00 81 1012.9
20210224222031 35 317 10.4 19.1 0.00 0.00 0.00 81 1012.8
20210224221524 35 318 10.4 16.5 0.00 0.00 0.00 80 1012.6
20210224221033 35 304 8.7 17.4 0.00 0.00 0.00 80 1012.4
20210224220522 35 307 9.6 17.4 0.00 0.00 0.00 80 1012.3
20210224220039 36 301 9.6 17.4 0.00 0.00 0.00 80 1012.2
20210224215524 36 310 8.7 14.8 0.00 0.00 0.00 80 1011.9
20210224215231 35 313 9.6 14.8 0.00 0.00 0.00 80 1011.7
20210224214525 35 303 7.8 14.8 0.00 0.00 0.00 81 1011.6
20210224214029 35 307 7.8 17.4 0.00 0.00 0.00 81 1011.5
20210224213521 35 325 11.3 20.0 0.00 0.00 0.00 81 1011.3
20210224213028 35 312 13.0 20.9 0.00 0.00 0.00 81 1011.2
20210224212640 35 312 13.0 20.9 0.00 0.00 0.00 82 1011.1
20210224212026 35 302 12.2 20.0 0.00 0.00 0.00 82 1010.8
20210224211529 35 307 10.4 17.4 0.00 0.00 0.00 83 1010.7
20210224211022 35 303 9.6 15.6 0.00 0.00 0.00 84 1010.6
20210224210533 35 312 10.4 18.2 0.00 0.00 0.00 84 1010.5
20210224210021 35 313 10.4 18.2 0.00 0.00 0.00 85 1010.3
20210224205518 35 306 11.3 18.2 0.00 0.00 0.00 86 1010.2
20210224205113 35 304 12.2 18.2 0.00 0.00 0.00 86 1010.1
20210224204520 35 307 9.6 20.0 0.00 0.00 0.00 86 1009.9
20210224204020 35 297 13.0 20.0 0.00 0.00 0.00 86 1009.7
20210224203527 35 314 8.7 18.2 0.00 0.00 0.00 85 1009.7
20210224203024 35 309 13.0 19.1 0.00 0.00 0.00 85 1009.5
20210224202607 36 313 12.2 19.1 0.00 0.00 0.00 85 1009.3
20210224202022 36 306 10.4 17.4 0.00 0.00 0.00 85 1008.9
20210224201518 36 304 8.7 17.4 0.00 0.00 0.00 85 1008.9
20210224201028 35 302 10.4 21.7 0.00 0.00 0.00 86 1008.8
20210224200521 35 299 12.2 21.7 0.00 0.00 0.00 87 1008.7
20210224200030 35 300 7.8 22.6 0.00 0.00 0.00 88 1008.5
20210224195527 35 311 11.3 22.6 0.00 0.00 0.00 88 1008.3
20210224195221 36 316 10.4 18.2 0.00 0.00 0.00 87 1008.2
20210224194527 36 305 7.0 20.0 0.00 0.00 0.00 87 1008.1
20210224194022 36 307 10.4 20.0 0.00 0.00 0.00 87 1007.9
20210224193537 36 300 11.3 20.0 0.00 0.00 0.00 86 1007.8
20210224193031 36 306 11.3 19.1 0.00 0.00 0.00 86 1007.7
20210224192607 36 302 10.4 20.0 0.00 0.00 0.00 85 1007.6
20210224192023 36 314 12.2 20.0 0.00 0.00 0.00 85 1007.6
20210224191528 36 308 9.6 21.7 0.00 0.00 0.00 85 1007.4
20210224191028 36 299 11.3 21.7 0.00 0.00 0.00 85 1007.4
20210224190517 36 303 9.6 16.5 0.00 0.00 0.00 85 1007.3
20210224190029 36 299 11.3 17.4 0.00 0.00 0.00 84 1007.2
20210224185517 37 311 11.3 19.1 0.00 0.00 0.00 83 1007.1
20210224185322 37 317 10.4 19.1 0.00 0.00 0.00 82 1007.1
20210224184525 38 314 10.4 17.4 0.00 0.00 0.00 81 1006.9
20210224184020 38 316 11.3 17.4 0.00 0.00 0.00 80 1006.7
20210224183528 38 300 7.0 13.0 0.00 0.00 0.00 80 1006.6
20210224183045 38 295 7.0 13.0 0.00 0.00 0.00 79 1006.3
20210224182616 38 289 7.8 15.6 0.00 0.00 0.00 79 1006.3
20210224182034 38 292 10.4 17.4 0.00 0.00 0.00 79 1006.2
20210224181529 39 293 11.3 19.1 0.00 0.00 0.00 77 1006.2
20210224181020 39 288 10.4 19.1 0.00 0.00 0.00 76 1006.0
20210224180528 40 290 9.6 17.4 0.00 0.00 0.00 76 1005.9
20210224180034 40 285 11.3 20.0 0.00 0.00 0.00 75 1005.8
20210224175525 40 287 11.3 20.0 0.00 0.00 0.00 74 1005.7
20210224175125 41 303 11.3 17.4 0.00 0.00 0.00 73 1005.7
20210224174532 41 296 9.6 17.4 0.00 0.00 0.00 73 1005.6
20210224174027 41 292 8.7 20.0 0.00 0.00 0.00 74 1005.5
20210224173521 41 283 11.3 21.7 0.00 0.00 0.00 75 1005.4
20210224173035 40 283 13.0 21.7 0.00 0.00 0.00 75 1005.5
20210224172537 41 294 11.3 16.5 0.00 0.00 0.00 74 1005.6
20210224172031 41 291 11.3 18.2 0.00 0.00 0.00 74 1005.4
20210224171535 42 290 12.2 19.1 0.00 0.00 0.00 73 1005.3
20210224171019 42 285 10.4 19.1 0.00 0.00 0.00 74 1005.1
20210224170531 41 277 11.3 20.9 0.00 0.00 0.00 75 1005.1
20210224170044 41 280 11.3 21.7 0.00 0.00 0.00 75 1004.9
20210224165532 41 282 13.0 22.6 0.00 0.00 0.00 74 1005.0
20210224165121 42 295 13.0 22.6 0.00 0.00 0.00 73 1004.8
20210224164524 43 286 12.2 21.7 0.00 0.00 0.00 73 1004.7
20210224164021 42 286 8.7 20.0 0.00 0.00 0.00 74 1004.6
20210224163524 42 276 12.2 20.0 0.00 0.00 0.00 74 1004.5
20210224163028 42 277 11.3 20.9 0.00 0.00 0.00 74 1004.3
20210224162545 42 275 11.3 20.9 0.00 0.00 0.00 75 1004.2
20210224162029 42 269 13.0 20.0 0.00 0.00 0.00 75 1004.0
20210224161525 42 285 9.6 18.2 0.00 0.00 0.00 75 1004.1
20210224161029 41 269 11.3 18.2 0.00 0.00 0.00 77 1003.8
20210224160523 41 262 13.0 18.2 0.00 0.00 0.00 76 1003.7
20210224160035 41 276 11.3 20.9 0.00 0.00 0.00 77 1003.7
20210224155523 41 272 13.0 20.9 0.00 0.00 0.00 77 1003.7
20210224155115 41 272 9.6 19.1 0.00 0.00 0.00 77 1003.5
20210224154529 41 265 11.3 19.1 0.00 0.00 0.00 78 1003.6
20210224154021 41 270 9.6 21.7 0.00 0.00 0.00 78 1003.4
20210224153535 41 272 13.0 21.7 0.00 0.00 0.00 79 1003.5
20210224153034 40 272 12.2 17.4 0.00 0.00 0.00 79 1003.5
20210224152552 40 265 12.2 20.9 0.00 0.00 0.00 78 1003.4
20210224152022 41 270 11.3 20.9 0.00 0.00 0.00 79 1003.4
20210224151525 41 270 10.4 16.5 0.00 0.00 0.00 78 1003.3
20210224151041 41 260 9.6 15.6 0.00 0.00 0.00 78 1003.3
20210224150520 41 262 9.6 17.4 0.00 0.00 0.00 78 1003.2
20210224150027 41 257 10.4 18.2 0.00 0.00 0.00 78 1003.1
20210224145522 41 254 12.2 18.2 0.00 0.00 0.00 77 1003.1
20210224145210 41 254 10.4 18.2 0.00 0.00 0.00 77 1003.0
20210224144522 41 249 10.4 18.2 0.00 0.00 0.00 77 1002.9
20210224144020 41 254 11.3 18.2 0.00 0.00 0.00 76 1002.8
20210224143524 42 254 8.7 18.2 0.00 0.00 0.00 76 1002.9
20210224143026 42 258 11.3 18.2 0.00 0.00 0.00 75 1002.6
20210224142626 42 257 10.4 19.1 0.00 0.00 0.00 75 1002.7
20210224142030 42 259 12.2 19.1 0.00 0.00 0.00 75 1002.7
20210224141528 43 258 12.2 18.2 0.00 0.00 0.00 75 1002.5
20210224141029 43 259 8.7 17.4 0.00 0.00 0.00 74 1002.5
20210224140521 43 251 10.4 18.2 0.00 0.00 0.00 74 1002.6
20210224140026 43 265 12.2 18.2 0.00 0.00 0.00 73 1002.7
20210224135524 43 259 11.3 16.5 0.00 0.00 0.00 73 1002.5
20210224135023 43 260 10.4 16.5 0.00 0.00 0.00 74 1002.4
20210224134530 43 256 9.6 14.8 0.00 0.00 0.00 73 1002.4
20210224134026 43 252 7.8 13.9 0.00 0.00 0.00 73 1002.2
20210224133524 43 254 9.6 13.0 0.00 0.00 0.00 74 1002.3
20210224133058 43 246 6.1 12.2 0.00 0.00 0.00 74 1002.1
20210224132649 43 241 7.0 12.2 0.00 0.00 0.00 73 1002.2
20210224132038 42 250 6.1 10.4 0.00 0.00 0.00 73 1002.3
20210224131524 42 249 5.2 9.6 0.00 0.00 0.00 73 1002.2
20210224131033 42 249 4.3 9.6 0.00 0.00 0.00 73 1002.3
20210224130528 42 242 3.5 7.8 0.00 0.00 0.00 73 1002.1
20210224130033 41 240 2.6 7.8 0.00 0.00 0.00 74 1002.1
20210224125610 41 233 2.6 7.0 0.00 0.00 0.00 73 1002.0
20210224125325 41 238 2.6 6.1 0.00 0.00 0.00 73 1002.0
20210224124533 41 212 2.6 7.0 0.00 0.00 0.00 73 1002.0
20210224124034 41 210 3.5 7.0 0.00 0.00 0.00 74 1001.9
20210224123531 41 226 1.7 5.2 0.00 0.00 0.00 73 1002.0
20210224123057 41 219 1.7 6.1 0.00 0.00 0.00 73 1002.1
20210224122653 41 195 2.6 6.1 0.00 0.00 0.00 73 1002.0
20210224122037 41 214 2.6 4.3 0.00 0.00 0.00 73 1002.1
20210224121523 41 205 1.7 5.2 0.00 0.00 0.00 73 1002.0
20210224121022 41 219 1.7 7.0 0.00 0.00 0.00 73 1002.1
20210224120523 41 210 2.6 7.8 0.00 0.00 0.00 73 1002.1
20210224120023 41 234 2.6 7.8 0.00 0.00 0.00 73 1002.1
20210224115530 41 238 2.6 6.1 0.00 0.00 0.00 72 1002.2
20210224115301 41 237 2.6 6.1 0.00 0.00 0.00 72 1002.1
20210224114535 41 233 2.6 6.1 0.00 0.00 0.00 72 1002.1
20210224114022 41 202 3.5 8.7 0.00 0.00 0.00 72 1001.9
20210224113529 41 202 3.5 8.7 0.00 0.00 0.00 71 1001.9
20210224113020 41 193 4.3 8.7 0.00 0.00 0.00 71 1002.0
20210224112533 41 191 4.3 7.0 0.00 0.00 0.00 71 1002.0
20210224112025 41 200 2.6 7.8 0.00 0.00 0.00 71 1002.1
20210224111524 41 197 2.6 7.8 0.00 0.00 0.00 71 1002.3
20210224111019 41 207 3.5 7.0 0.00 0.00 0.00 71 1002.4
20210224110523 41 203 3.5 7.0 0.00 0.00 0.00 71 1002.4
20210224110031 41 215 1.7 5.2 0.00 0.00 0.00 71 1002.6
20210224105517 41 224 2.6 5.2 0.00 0.00 0.00 71 1002.6
20210224105116 41 227 1.7 7.8 0.00 0.00 0.00 71 1002.7
20210224104519 41 229 3.5 9.6 0.00 0.00 0.00 71 1002.8
20210224104024 41 235 4.3 12.2 0.00 0.00 0.00 72 1002.6
20210224103521 41 198 5.2 12.2 0.00 0.00 0.00 72 1002.3
20210224103026 40 181 4.3 10.4 0.00 0.00 0.00 73 1002.2
20210224102651 40 184 4.3 9.6 0.00 0.00 0.00 75 1002.2
20210224102031 39 178 3.5 7.8 0.00 0.00 0.00 76 1002.2
20210224101524 38 166 2.6 7.0 0.00 0.00 0.00 76 1002.2
20210224101022 38 171 1.7 6.1 0.00 0.00 0.00 77 1002.3
20210224100521 38 160 1.7 5.2 0.00 0.00 0.00 77 1002.3
20210224100031 38 146 2.6 7.0 0.00 0.00 0.00 77 1002.3
20210224095525 38 156 2.6 7.0 0.00 0.00 0.00 77 1002.5
20210224095141 38 152 2.6 7.0 0.00 0.00 0.00 77 1002.5
20210224094518 38 159 3.5 7.8 0.00 0.00 0.00 77 1002.7
20210224094023 38 156 4.3 7.8 0.00 0.00 0.00 77 1002.9
20210224093522 37 169 2.6 6.1 0.00 0.00 0.00 78 1003.1
20210224093032 37 158 2.6 7.0 0.00 0.00 0.00 78 1003.1
20210224092610 37 150 3.5 7.0 0.00 0.00 0.00 78 1003.4
20210224092036 37 154 2.6 7.8 0.00 0.00 0.00 78 1003.5
20210224091525 37 159 3.5 7.8 0.00 0.00 0.00 78 1003.5
20210224091022 37 148 3.5 7.8 0.00 0.00 0.00 78 1003.6
20210224090523 37 156 3.5 7.8 0.00 0.00 0.00 78 1003.7
20210224090032 37 163 4.3 7.8 0.00 0.00 0.00 78 1003.9
20210224085520 37 158 4.3 8.7 0.00 0.00 0.00 78 1003.9
20210224085218 37 170 4.3 10.4 0.00 0.00 0.00 78 1004.2
20210224084524 37 159 5.2 11.3 0.00 0.00 0.00 78 1004.3
20210224084030 37 156 5.2 11.3 0.00 0.00 0.00 78 1004.4
20210224083520 37 160 5.2 10.4 0.00 0.00 0.00 78 1004.6
20210224083027 37 171 5.2 12.2 0.00 0.00 0.00 78 1004.7
20210224082535 37 164 6.1 12.2 0.00 0.00 0.00 79 1004.9
20210224082028 37 165 4.3 9.6 0.00 0.00 0.00 80 1004.9
20210224081531 36 154 3.5 7.8 0.00 0.00 0.00 81 1004.9
20210224081025 36 144 4.3 7.8 0.00 0.00 0.00 82 1004.8
20210224080518 36 137 5.2 9.6 0.00 0.00 0.00 82 1005.0
20210224080025 36 140 5.2 10.4 0.00 0.00 0.00 82 1005.2
20210224075522 36 136 7.0 10.4 0.00 0.00 0.00 82 1005.4
20210224075236 36 136 7.0 10.4 0.00 0.00 0.00 82 1005.6
20210224074520 36 137 7.0 10.4 0.00 0.00 0.00 82 1005.7
20210224074021 36 128 5.2 8.7 0.00 0.00 0.00 82 1005.9
20210224073525 36 127 5.2 8.7 0.00 0.00 0.00 82 1006.1
20210224073027 36 126 5.2 7.8 0.00 0.00 0.00 82 1006.3
20210224072551 36 131 4.3 7.8 0.00 0.00 0.00 83 1006.6
20210224072030 36 121 4.3 7.0 0.00 0.00 0.00 82 1006.6
20210224071526 36 129 3.5 7.0 0.00 0.00 0.00 82 1006.8
20210224071032 36 129 3.5 7.0 0.00 0.00 0.00 82 1006.9
20210224070522 36 126 4.3 7.0 0.00 0.00 0.00 81 1007.1
20210224070023 36 128 3.5 7.0 0.00 0.00 0.00 81 1007.2
20210224065530 36 133 3.5 7.0 0.00 0.00 0.00 82 1007.4
20210224065329 35 132 3.5 6.1 0.00 0.00 0.00 82 1007.5
20210224064522 35 139 3.5 6.1 0.00 0.00 0.00 83 1007.7
20210224064022 35 133 3.5 6.1 0.00 0.00 0.00 83 1007.9
20210224063521 35 131 2.6 4.3 0.00 0.00 0.00 81 1008.2
20210224063027 35 134 2.6 4.3 0.00 0.00 0.00 81 1008.4
20210224062612 35 150 1.7 3.5 0.00 0.00 0.00 80 1008.4
20210224062025 36 175 0.0 1.7 0.00 0.00 0.00 79 1008.3
20210224061526 36 173 0.0 2.6 0.00 0.00 0.00 79 1008.5
20210224061026 36 166 0.9 3.5 0.00 0.00 0.00 79 1008.4
20210224060522 36 157 0.9 3.5 0.00 0.00 0.00 79 1008.3
20210224060021 36 149 1.7 3.5 0.00 0.00 0.00 79 1008.4
20210224055519 37 176 0.9 4.3 0.00 0.00 0.00 79 1008.4
20210224055130 37 195 0.9 6.1 0.00 0.00 0.00 79 1008.5
20210224054519 37 213 1.7 6.1 0.00 0.00 0.00 79 1008.6
20210224054023 37 210 2.6 4.3 0.00 0.00 0.00 79 1008.5
20210224053524 36 245 1.7 5.2 0.00 0.00 0.00 79 1008.5
20210224053024 36 209 1.7 6.1 0.00 0.00 0.00 79 1008.2
20210224052634 36 178 2.6 7.0 0.00 0.00 0.00 80 1007.9
20210224052024 36 181 2.6 7.0 0.00 0.00 0.00 80 1007.8
20210224051526 36 168 3.5 7.0 0.00 0.00 0.00 81 1007.6
20210224051028 36 167 2.6 6.1 0.00 0.00 0.00 81 1007.6
20210224050522 36 144 1.7 3.5 0.00 0.01 0.00 81 1007.7
20210224050028 36 156 1.7 5.2 0.00 0.02 0.02 81 1007.9
20210224045539 36 166 2.6 6.1 0.00 0.02 0.02 81 1007.9
20210224045103 35 169 2.6 6.1 0.00 0.02 0.02 81 1008.2
20210224044526 35 177 1.7 3.5 0.00 0.02 0.02 81 1008.2
20210224044022 36 188 0.9 4.3 0.00 0.02 0.02 81 1008.4
20210224043527 35 196 1.7 4.3 0.00 0.02 0.02 82 1008.6
20210224043023 35 189 2.6 5.2 0.00 0.02 0.02 81 1008.5
20210224042534 36 203 1.7 6.1 0.00 0.02 0.02 81 1008.7
20210224042027 35 202 2.6 6.1 0.00 0.02 0.02 81 1008.7
20210224041536 35 182 2.6 7.0 0.00 0.02 0.02 81 1008.4
20210224041024 35 166 2.6 7.0 0.00 0.02 0.02 82 1008.4
20210224040526 35 155 3.5 7.0 0.00 0.02 0.02 82 1008.2
20210224040037 35 144 3.5 8.7 0.00 0.02 0.02 82 1008.2
20210224035521 35 139 4.3 8.7 0.00 0.02 0.02 81 1008.3
20210224035052 35 144 3.5 7.0 0.00 0.02 0.02 80 1008.5
20210224034529 36 167 2.6 6.1 0.00 0.02 0.02 81 1009.2
20210224034031 36 155 1.7 4.3 0.00 0.02 0.02 80 1009.3
20210224033524 36 165 2.6 4.3 0.00 0.02 0.02 80 1009.4
20210224033027 36 159 1.7 7.0 0.00 0.02 0.02 80 1009.6
20210224032619 36 174 2.6 7.0 0.00 0.02 0.02 79 1009.7
20210224032025 36 181 1.7 4.3 0.00 0.02 0.02 79 1009.8
20210224031525 37 190 1.7 6.1 0.00 0.02 0.02 79 1009.9
20210224031022 37 189 1.7 6.1 0.00 0.02 0.02 78 1009.9
20210224030521 37 197 2.6 6.1 0.00 0.02 0.02 78 1009.9
20210224030026 37 179 1.7 4.3 0.00 0.02 0.02 78 1009.9
20210224025525 37 167 1.7 3.5 0.00 0.02 0.02 78 1009.9
20210224025157 37 182 0.9 3.5 0.00 0.02 0.02 77 1009.8
20210224024524 37 206 0.9 3.5 0.00 0.02 0.02 77 1009.8
20210224024028 38 211 0.9 3.5 0.00 0.02 0.02 77 1009.8
20210224023527 37 211 1.7 3.5 0.00 0.02 0.02 77 1009.8
20210224023030 37 218 1.7 3.5 0.00 0.02 0.02 76 1009.9
20210224022553 38 214 1.7 4.3 0.00 0.02 0.02 76 1009.8
20210224022036 38 210 1.7 4.3 0.00 0.02 0.02 76 1009.7
20210224021528 38 191 1.7 4.3 0.00 0.02 0.02 77 1009.7
20210224021025 38 201 1.7 4.3 0.00 0.02 0.02 76 1009.7
20210224020519 38 213 1.7 7.8 0.00 0.02 0.02 76 1009.8
20210224020026 38 229 2.6 7.8 0.00 0.02 0.02 76 1009.8
20210224015524 38 237 3.5 7.8 0.00 0.02 0.02 76 1009.8
20210224015023 38 246 3.5 7.8 0.00 0.02 0.02 77 1009.9
20210224014523 38 249 2.6 5.2 0.00 0.02 0.02 77 1009.9
20210224014024 38 247 2.6 5.2 0.00 0.02 0.02 77 1009.9
20210224013519 38 248 1.7 4.3 0.00 0.02 0.02 77 1009.9
20210224013027 38 239 1.7 5.2 0.00 0.02 0.02 78 1010.0
20210224012640 37 236 1.7 5.2 0.00 0.02 0.02 79 1010.1
20210224012021 37 246 0.9 3.5 0.00 0.02 0.02 78 1010.0
20210224011531 37 236 0.0 2.6 0.00 0.02 0.02 78 1009.8
20210224011029 38 233 0.0 2.6 0.00 0.02 0.02 77 1009.8
20210224010536 38 205 0.0 2.6 0.00 0.02 0.02 77 1009.7
20210224010043 38 199 0.9 4.3 0.00 0.02 0.02 76 1009.8
20210224005520 39 234 1.7 4.3 0.00 0.02 0.02 75 1009.8
20210224005131 39 240 1.7 3.5 0.00 0.02 0.02 74 1009.7
20210224004524 39 229 1.7 3.5 0.00 0.02 0.02 74 1009.6
20210224004027 39 229 0.9 4.3 0.00 0.02 0.02 74 1009.5
20210224003526 39 234 1.7 8.7 0.00 0.02 0.02 74 1009.6
20210224003022 39 233 3.5 9.6 0.00 0.02 0.02 74 1009.7
20210224002610 39 235 4.3 9.6 0.00 0.02 0.02 74 1009.6
20210224002022 39 254 2.6 7.0 0.00 0.02 0.02 74 1009.6
20210224001547 39 252 1.7 6.1 0.00 0.02 0.02 74 1009.5
20210224001026 39 256 2.6 5.2 0.00 0.02 0.02 74 1009.4
20210224000526 39 255 2.6 5.2 0.00 0.02 0.02 74 1009.3
20210224000027 38 259 1.7 3.5 0.00 0.02 0.02 75 1009.2